Retour au catalogue

KNACKSAT-2

ActifScienceVLEO
NORAD 67683·PAYLOAD·🇹🇭 Thailand

Lancé Nov 20, 1998 depuis Baikonur Cosmodrome

Loading…

Prochains Passages (prochaines 24 heures)

TLE

FraisSource: Space-Track

Époque: Sep 14, 2026, 05:21 UTC

1 67683U 98067XZ  26257.22317614  .00056336  00000-0  48483-3 0  9991
2 67683  51.6255 203.8302 0008001 159.8891 200.2423 15.68709818 34210

Suivez KNACKSAT-2 en temps réel avec AllMySat

Download on the App Store